Location: Les Logissons
(43.5803°N, 5.4702°E)
Time: 07:42:15
(UTC+00:00)

Daily predictions for brighter satellites

Satellite Brightness Start Highest point End
(mag) Time Altitude Azimuth Time Altitude Azimuth Time Altitude Azimuth
H-2A ROCKET BODY 4.3 16:55:49 10° WSW 17:09:40 28° SSW 17:14:14 10° SE
ERBS 3.4 17:06:34 10° WSW 17:09:43 38° NW 17:12:52 10° NE
PSLV R/B 4.4 17:10:13 10° N 17:14:16 66° WNW 17:18:21 10° SSW
Atlas Centaur 2 4.0 17:13:41 10° S 17:15:29 12° SSE 17:17:24 10° SE
SL-16 R/B 2.7 17:10:19 10° NNW 17:15:36 38° ENE 17:20:50 10° SE
Cosmos 2251 Rocket 4.3 17:12:02 10° N 17:16:42 30° ENE 17:21:21 10° ESE
Cosmos 44 3.2 17:16:04 10° SSW 17:20:36 58° ESE 17:24:58 10° NE
Cosmos 962 Rocket 4.4 17:14:38 10° S 17:20:44 75° E 17:26:54 10° N
Cosmos 1825 Rocket 3.6 17:16:35 10° S 17:20:50 57° E 17:25:05 10° NNE
Cosmos 2219 3.5 17:16:40 10° SSW 17:22:15 71° WNW 17:27:55 10° NNE
BREEZE-M DEB (TANK) 2.0 17:19:51 10° SW 17:22:20 67° SSE 17:24:29 12° ENE
Cosmos 2082 4.0 17:17:16 10° S 17:22:36 46° ESE 17:27:58 10° NE
Okean O Rocket 4.3 17:20:32 10° SSW 17:24:09 24° W 17:27:48 10° NW
USA 32 4.0 17:19:59 10° S 17:25:11 74° E 17:30:25 10° N
Shenzhou-11 Module 1.9 17:23:00 10° WSW 17:25:39 60° S 17:27:56 13° E
Cosmos 2297 Rocket 2.3 17:23:45 10° SSW 17:29:24 87° WNW 17:35:07 10° NNE
Okean-O 2.6 17:26:14 10° SSE 17:30:38 77° ENE 17:35:05 10° N
CZ-4 R/B 1.8 17:27:21 10° SE 17:31:09 39° ENE 17:35:02 10° N
Meteor 2-10 Rocket 3.6 17:26:04 10° N 17:31:13 52° ENE 17:36:09 10° SSE
ATLAS CENTAUR R/B 2.3 17:29:54 10° NNW 17:33:20 25° NE 17:36:00 13° E
Envisat 3.1 17:29:15 10° SSE 17:34:19 83° WSW 17:39:27 10° NNW
Cosmos 1980 4.4 17:28:50 10° NNW 17:34:25 59° WSW 17:39:59 10° S
Cosmos 2221 3.9 17:36:17 10° NNE 17:39:06 17° ENE 17:41:13 12° ESE
Cosmos 2263 Rocket 3.9 17:37:41 10° ESE 17:39:40 12° E 17:39:40 12° E
Cosmos 2227 Rocket 2.4 17:36:49 10° SSW 17:42:28 76° WNW 17:48:09 10° NNE
Cosmos 1328 3.9 17:39:17 10° S 17:43:11 53° E 17:47:07 10° NNE
Meteor 1-21 Rocket 4.4 17:38:26 10° SSW 17:44:02 79° W 17:49:48 10° N
Cosmos 1727 Rocket 4.3 17:38:46 10° N 17:44:39 43° ENE 17:50:28 10° SSE
NOAA 11 4.4 17:39:30 10° SE 17:44:42 46° ENE 17:49:55 10° N
DELTA 2 R/B (1) 4.0 17:39:25 10° W 17:44:54 57° S 17:49:52 13° ESE
SKYMED 2 3.5 17:40:49 10° NNE 17:45:10 73° ESE 17:49:30 10° S
Cosmos-2242 3.0 17:41:41 10° N 17:46:01 89° WNW 17:50:17 10° S
SL-8 Rocket 4.0 17:42:44 10° S 17:49:02 82° E 17:55:20 10° N
FengYun 1-2 T 4.3 17:45:30 10° SSE 17:51:08 89° WSW 17:56:50 10° NNW
USA 267 4.0 17:45:45 10° NE 17:51:55 46° NNW 17:58:05 10° W
YAOGAN 6 3.3 17:53:20 10° S 17:56:57 58° W 18:00:34 10° NNW
Cosmos 1356 Rocket 3.6 17:53:57 10° N 17:57:51 43° ENE 18:01:46 10° SSE
Cosmos 44 Rocket 4.3 17:54:28 10° S 17:58:27 26° ESE 17:59:46 23° E
Cosmos 1943 4.3 17:55:33 10° N 17:59:50 22° NE 18:00:44 21° ENE
YAOGAN 1 2.5 17:55:37 10° SSE 17:59:53 65° ENE 18:04:11 10° N
CSL-04 Debris 4.1 18:06:53 10° SSE 18:12:15 81° ENE 18:17:41 10° NNW
Cosmos 1703 3.6 18:10:07 10° SSW 18:14:02 67° W 18:18:01 10° N
ISS -2.5 18:13:27 10° W 18:16:33 32° NNW 18:17:29 27° NNE
Ariane Rocket 3.3 18:13:05 10° SE 18:17:47 40° ENE 18:22:31 10° N
Cosmos 1821 Rocket 4.2 18:16:41 10° SSE 18:22:43 47° E 18:28:42 10° NNE
USA 234 4.1 18:19:55 10° SSE 18:26:13 50° SW 18:32:32 10° WNW
SWAS 4.5 18:22:38 10° SSW 18:26:58 80° WNW 18:29:15 27° NNE
SL-8 R/B 4.0 18:23:15 10° W 18:28:00 56° NNW 18:29:34 38° NE
Cosmos 1939 Rocket 2.8 18:24:23 10° S 18:28:18 81° W 18:32:19 10° NNW
COSMO-SKYMED 1 4.2 18:29:12 10° N 18:33:08 35° WNW 18:37:04 10° SW
CSL-04 Rocket 4.0 18:28:37 10° S 18:34:05 69° WSW 18:39:39 10° NNW
Cosmos 1455 4.4 18:33:20 10° NNW 18:36:33 26° W 18:39:44 10° SSW
Cosmos 1842 Rocket 3.5 18:32:06 10° N 18:36:36 88° E 18:41:05 10° S
CZ-2D R/B 3.9 18:37:37 10° S 18:41:22 54° W 18:45:10 10° NNW
Cosmos 614 Rocket 4.3 18:39:31 10° N 18:43:54 45° NE 18:43:54 45° NE
USA 238 DEB 3.9 18:39:47 10° S 18:45:58 42° ESE 18:46:23 42° ESE
USA 238 3.9 18:39:57 10° S 18:46:05 42° ESE 18:46:26 42° ESE
Cosmos 2123 Rocket 4.3 18:43:39 10° N 18:49:00 44° ENE 18:49:00 44° ENE
ADEOS Rocket 3.3 18:43:15 10° NNE 18:50:03 82° ESE 18:57:31 10° SSW
H-2A R/B 3.4 18:58:44 26° N 18:58:44 26° N 19:01:03 10° N
SJ-11-01 4.4 18:58:22 60° N 18:58:22 60° N 19:02:17 10° N
Cosmos 1000 Rocket 4.3 18:51:32 10° N 18:57:47 86° E 19:04:02 10° S
Cosmos 1934 Rocket 4.3 18:52:01 10° SSE 18:56:24 44° SE 18:56:24 44° SE
SL-16 R/B 3.8 18:54:35 10° NW 18:59:38 34° WSW 19:04:40 10° SSW
Cosmos 2227 4.1 18:56:06 10° SSW 19:01:50 79° ESE 19:02:34 67° NE
Atlas Centaur 2 3.7 18:59:55 10° SW 19:03:22 19° S 19:03:39 19° S
CZ-4 R/B 4.3 19:03:34 10° SW 19:06:21 18° W 19:09:12 10° NW
Timation 1 Rocket 4.4 19:04:45 10° SSW 19:09:53 61° SSE 19:09:53 61° SSE
ATLAS CENTAUR R/B 2.8 19:08:45 10° NW 19:12:17 32° WSW 19:12:17 32° WSW
Cosmos 1603 3.5 19:07:04 10° NNW 19:12:45 88° NE 19:12:45 88° NE
Cosmos 1535 Rocket 4.4 19:09:15 10° S 19:23:28 - N 19:15:11 73° ESE
Cosmos 2221 3.6 19:12:49 10° NNW 19:16:53 43° W 19:18:42 27° SW
Cosmos 2263 Rocket 2.5 19:17:09 10° SSW 19:21:26 55° SSW 19:21:26 55° SSW
USA 267 4.5 19:33:03 27° N 19:33:58 28° N 19:39:20 10° WNW
BREEZE-M DEB (TANK) 4.2 19:08:32 10° WNW 19:35:57 78° NNE 19:36:58 70° ENE
Cosmos 1943 4.1 19:38:48 10° NNW 19:42:37 43° NW 19:42:37 43° NW
ATLAS 5 CENTAUR R/B 4.2 19:53:46 10° NW 19:59:50 89° SW 20:29:05 10° SSE
